TimeEDT,TemperatureF,Dew PointF,Humidity,Sea Level PressureIn,VisibilityMPH,Wind Direction,Wind SpeedMPH,Gust SpeedMPH,PrecipitationIn,Events,Conditions,WindDirDegrees,DateUTC
12:15 AM,39.2,37.4,93,29.59,10.0,East,18.4,28.8,N/A,Rain,Light Rain,80,2013-04-12 04:15:00
12:36 AM,39.2,37.4,93,29.58,7.0,ENE,9.2,-,N/A,Rain,Rain,60,2013-04-12 04:36:00
12:56 AM,39.2,37.4,93,29.58,7.0,ENE,6.9,-,N/A,Rain,Rain,60,2013-04-12 04:56:00
1:11 AM,39.2,37.4,93,29.57,3.0,ENE,5.8,-,N/A,Rain,Heavy Rain,70,2013-04-12 05:11:00
1:33 AM,37.4,37.4,100,29.57,3.0,ENE,5.8,-,N/A,Rain,Rain,60,2013-04-12 05:33:00
1:53 AM,39.2,37.4,93,29.57,5.0,East,5.8,-,N/A,Rain,Light Rain,80,2013-04-12 05:53:00
2:13 AM,39.2,37.4,93,29.56,7.0,East,3.5,-,N/A,,Drizzle,80,2013-04-12 06:13:00
2:36 AM,39.2,39.2,100,29.56,4.0,NE,4.6,-,N/A,Rain,Rain,40,2013-04-12 06:36:00
2:56 AM,39.2,37.4,93,29.53,4.0,East,4.6,-,N/A,Rain,Light Rain,80,2013-04-12 06:56:00
3:16 AM,39.2,39.2,100,29.52,7.0,East,8.1,-,N/A,,Drizzle,80,2013-04-12 07:16:00
3:56 AM,39.2,37.4,93,29.51,4.0,NE,5.8,-,N/A,Rain,Light Rain,50,2013-04-12 07:56:00
4:16 AM,39.2,37.4,93,29.53,5.0,NNW,4.6,-,N/A,Rain,Light Rain,330,2013-04-12 08:16:00
4:31 AM,39.2,37.4,93,29.54,3.0,WNW,6.9,-,N/A,Rain,Rain,290,2013-04-12 08:31:00
4:51 AM,39.2,37.4,93,29.55,2.0,NW,6.9,-,N/A,,Heavy Drizzle,310,2013-04-12 08:51:00
5:11 AM,39.2,37.4,93,29.53,3.0,NNW,4.6,-,N/A,Rain,Light Rain,340,2013-04-12 09:11:00
5:32 AM,39.2,37.4,93,29.51,7.0,North,6.9,-,N/A,Rain,Rain,10,2013-04-12 09:32:00
5:52 AM,39.2,37.4,93,29.51,7.0,NNE,5.8,-,N/A,Rain,Light Rain,20,2013-04-12 09:52:00
6:12 AM,39.2,37.4,93,29.52,10.0,NW,3.5,-,N/A,,Light Drizzle,320,2013-04-12 10:12:00
6:32 AM,39.2,37.4,93,29.52,10.0,NW,3.5,-,N/A,Rain,Rain,310,2013-04-12 10:32:00
6:52 AM,39.2,37.4,93,29.53,10.0,NW,3.5,-,N/A,,Overcast,320,2013-04-12 10:52:00
7:12 AM,39.2,37.4,93,29.54,10.0,West,3.5,-,N/A,,Overcast,280,2013-04-12 11:12:00
7:32 AM,39.2,37.4,93,29.54,10.0,WNW,4.6,-,N/A,,Overcast,290,2013-04-12 11:32:00
7:52 AM,39.2,37.4,93,29.55,10.0,West,5.8,-,N/A,,Overcast,280,2013-04-12 11:52:00
8:12 AM,39.2,37.4,93,29.56,10.0,West,5.8,-,N/A,,Overcast,280,2013-04-12 12:12:00
8:32 AM,39.2,37.4,93,29.57,2.0,West,5.8,-,N/A,,Overcast,260,2013-04-12 12:32:00
8:53 AM,39.2,39.2,100,29.57,1.8,West,4.6,-,N/A,,Overcast,260,2013-04-12 12:53:00
9:13 AM,39.2,39.2,100,29.58,2.5,West,6.9,-,N/A,,Overcast,260,2013-04-12 13:13:00
9:33 AM,39.2,39.2,100,29.58,3.0,WSW,5.8,-,N/A,,Overcast,240,2013-04-12 13:33:00
9:53 AM,41.0,39.2,93,29.58,3.0,WSW,9.2,-,N/A,,Overcast,240,2013-04-12 13:53:00
10:13 AM,41.0,39.2,93,29.59,7.0,WSW,11.5,-,N/A,,Overcast,240,2013-04-12 14:13:00
10:53 AM,42.8,41.0,93,29.59,10.0,WSW,11.5,-,N/A,,Overcast,240,2013-04-12 14:53:00
11:13 AM,42.8,39.2,87,29.60,7.0,WSW,20.7,25.3,N/A,,Overcast,240,2013-04-12 15:13:00
11:33 AM,42.8,39.2,87,29.61,10.0,WSW,16.1,24.2,N/A,,Overcast,250,2013-04-12 15:33:00
11:53 AM,42.8,39.2,87,29.62,10.0,WSW,20.7,-,N/A,,Overcast,250,2013-04-12 15:53:00
12:14 PM,42.8,37.4,81,29.63,10.0,SW,20.7,28.8,N/A,,Overcast,230,2013-04-12 16:14:00
12:34 PM,42.8,37.4,81,29.64,10.0,WSW,20.7,-,N/A,,Overcast,250,2013-04-12 16:34:00
12:54 PM,42.8,35.6,76,29.64,10.0,WSW,19.6,26.5,N/A,,Overcast,250,2013-04-12 16:54:00
1:14 PM,42.8,35.6,76,29.65,10.0,WSW,18.4,21.9,N/A,,Overcast,240,2013-04-12 17:14:00
1:34 PM,42.8,35.6,76,29.66,10.0,WSW,18.4,26.5,N/A,,Overcast,250,2013-04-12 17:34:00
1:54 PM,42.8,33.8,70,29.66,10.0,WSW,17.3,24.2,N/A,,Overcast,250,2013-04-12 17:54:00
2:14 PM,42.8,35.6,76,29.66,10.0,WSW,15.0,21.9,N/A,,Overcast,240,2013-04-12 18:14:00
2:34 PM,42.8,33.8,70,29.67,10.0,WSW,18.4,25.3,N/A,,Overcast,240,2013-04-12 18:34:00
2:54 PM,42.8,33.8,70,29.68,10.0,WSW,23.0,27.6,N/A,,Overcast,240,2013-04-12 18:54:00
3:15 PM,42.8,33.8,70,29.69,10.0,WSW,18.4,28.8,N/A,,Overcast,250,2013-04-12 19:15:00
3:35 PM,42.8,33.8,70,29.69,7.0,WSW,20.7,-,N/A,,Overcast,250,2013-04-12 19:35:00
3:55 PM,42.8,35.6,76,29.70,10.0,WSW,12.7,-,N/A,,Overcast,240,2013-04-12 19:55:00
4:15 PM,42.8,35.6,76,29.70,10.0,WSW,13.8,24.2,N/A,,Overcast,250,2013-04-12 20:15:00
4:35 PM,42.8,33.8,70,29.70,10.0,West,18.4,26.5,N/A,,Overcast,260,2013-04-12 20:35:00
4:55 PM,42.8,35.6,76,29.71,10.0,SW,16.1,24.2,N/A,,Overcast,230,2013-04-12 20:55:00
5:15 PM,42.8,35.6,76,29.72,10.0,SW,18.4,23.0,N/A,,Overcast,230,2013-04-12 21:15:00
5:35 PM,42.8,35.6,76,29.72,10.0,WSW,17.3,20.7,N/A,,Overcast,240,2013-04-12 21:35:00
5:55 PM,42.8,35.6,76,29.73,10.0,WSW,21.9,-,N/A,,Overcast,240,2013-04-12 21:55:00
6:15 PM,42.8,35.6,76,29.73,10.0,WSW,19.6,24.2,N/A,,Overcast,240,2013-04-12 22:15:00
6:36 PM,42.8,35.6,76,29.74,10.0,WSW,17.3,-,N/A,,Overcast,240,2013-04-12 22:36:00
6:56 PM,42.8,35.6,76,29.75,10.0,WSW,15.0,23.0,N/A,,Overcast,240,2013-04-12 22:56:00
7:16 PM,42.8,35.6,76,29.75,10.0,SW,15.0,24.2,N/A,,Overcast,230,2013-04-12 23:16:00
7:36 PM,42.8,35.6,76,29.75,10.0,WSW,17.3,23.0,N/A,,Overcast,240,2013-04-12 23:36:00
7:56 PM,42.8,35.6,76,29.76,10.0,SW,15.0,20.7,N/A,,Overcast,230,2013-04-12 23:56:00
8:16 PM,42.8,35.6,76,29.76,10.0,SW,13.8,21.9,N/A,,Overcast,230,2013-04-13 00:16:00
8:36 PM,42.8,35.6,76,29.76,10.0,SW,12.7,-,N/A,,Overcast,220,2013-04-13 00:36:00
8:51 PM,42.8,37.4,81,29.76,10.0,SW,13.8,-,N/A,,Overcast,230,2013-04-13 00:51:00
9:11 PM,42.8,37.4,81,29.76,10.0,SW,13.8,20.7,N/A,,Overcast,230,2013-04-13 01:11:00
9:31 PM,42.8,37.4,81,29.77,10.0,SW,11.5,-,N/A,,Overcast,220,2013-04-13 01:31:00
9:52 PM,42.8,37.4,81,29.77,10.0,SW,9.2,-,N/A,,Overcast,220,2013-04-13 01:52:00
10:12 PM,42.8,37.4,81,29.77,10.0,SW,13.8,-,N/A,,Overcast,220,2013-04-13 02:12:00
10:32 PM,42.8,37.4,81,29.78,10.0,SW,12.7,-,N/A,,Overcast,220,2013-04-13 02:32:00
10:52 PM,42.8,37.4,81,29.78,10.0,SW,12.7,20.7,N/A,,Overcast,220,2013-04-13 02:52:00
11:12 PM,42.8,37.4,81,29.78,10.0,SW,12.7,-,N/A,,Overcast,230,2013-04-13 03:12:00
11:32 PM,42.8,39.2,87,29.79,10.0,SW,15.0,21.9,N/A,,Overcast,230,2013-04-13 03:32:00
11:52 PM,42.8,39.2,87,29.79,10.0,SW,15.0,19.6,N/A,,Overcast,230,2013-04-13 03:52:00